DIAMANT R/B, 1805

Orbit data source: Space-Track

DIAMANT R/B, 1805 is space debris in LEO originally from a launch on Fri, 26 Nov 1965 UTC launched from the Hamma Guira Space Track Range (HGSTR). Debris objects in space refer to the collection of defunct objects orbiting the Earth. Examples of debris include non-operational satellites, rocket bodies, and fragments generated from explosions, collisions, or faulty payload assembly.

Loading next visibility...
DIAMANT R/B details
Identifier
1805, 1965-096B
Orbit
LEO
Last TLE update8 hours ago
Origin
Flag of FRCNES (FR)
ManufacturerSud
MissionSpacecraft
Bus & MotorRUBIS, Unknown motor
Mass65 kg wet, 65 kg dry
Launch date (UTC)
1965-11-26 (59 years ago)
Launch vehicleUnknown
Launch site
Hamma Guira Space Track Range (HGSTR)
Object type
Payload
Rocket body
Debris
Shape & HBRCyl, 2.1 m
Radar Cross Section1.347 m², Large (>1 m²)

Expand to show TLE details & history

TLE from 8 hours ago
0 DIAMANT R/B
1  1805U 65096B   25036.03615586  .00006907  00000-0  14489-2 0  9990
2  1805  34.2511  31.6814 0592903 314.2895  41.0568 13.85451173935239
Epoch: 2025-02-05T00:52Z
Definitive object data (Epoch: 2025-02-05T00:52:03.866Z)
Latitude-0.00003°
Longitude-116.76761°
Altitude628.083 km
Speed7.707 km/s
True Right ascension02h 06m 43s
True Declination0° 00' 00"
Sunlit
Object was in daylight at TLE epoch
Visualization TLE readout
Latitude-15.08423°
Longitude84.72309°
Altitude1,067.787 km
Speed7.259 km/s
Apparent Right ascension18h 12m 05s
Apparent Declination-39° 51' 46"
Sunlit
Object is in daylight
Visualization observer readout
Local Sidereal Time10:52:44
Azimuth114.197° SE
Elevation-37.667°
Doppler factor1
Orbital elements
Apogee altitude1,382.151 km
Perigee altitude513.438 km
Semi-major axis7,325.931 km
Eccentricity0.0592903
Inclination34.2511°
RAAN31.6814°
Arg. of periapsis314.2895°
True anomaly45.77735°
Mean anomaly41.0568°
Eccentric anomaly43.39048°
Mean motion3.46138 °/min
BSTAR0.0014489
Orbital period104 mins
Loading maneuver chart data...
Loading historical data...
Loading historical data...
Loading historical data...
Loading historical data...
Loading historical data...
Loading historical data...
Loading historical data...
Other satellites on launch #96 in the year 1965 (1965-11-26 UTC)

DIAMANT R/B Visibility forecast

Observer location: undefined°, undefined

Span
Click to sort rows by Start time (UTC) header in descending order
Start Az.
Max El. time (UTC)
Max El. Az.
Max El.
End time (UTC)
End Az.
11 mins2025-02-05 10:06:10.525Z253.947° W2025-02-05 10:11:10.525Z218.231° SW18.097°2025-02-05 10:17:10.525Z174.523° S
10 mins2025-02-06 03:02:10.525Z205.901° SW2025-02-06 03:06:10.525Z152.502° SSE27.447°2025-02-06 03:12:10.525Z96.357° ESE
12 mins2025-02-06 04:51:10.525Z241.403° WSW2025-02-06 04:56:10.525Z163.799° S38.973°2025-02-06 05:03:10.525Z99.244° ESE
14 mins2025-02-06 06:40:10.525Z260.177° W2025-02-06 06:46:10.525Z192.222° SSW38.684°2025-02-06 06:54:10.525Z117.05° SE
13 mins2025-02-06 08:31:10.525Z256.49° W2025-02-06 08:36:10.525Z210.504° SW28.38°2025-02-06 08:44:10.525Z146.14° SSE
|